Flag for Germany Weather past 2 weeks in Burgdorf, Lower Saxony, Germany

Now
70 °F

Passing clouds.


Feels Like: 70 °F
Forecast: 69 / 90 °F
Wind: 2 mph from East

Location: Celle Airport

Current Time: Jul 4, 2015 at 6:13:10 AM

Latest Report: Jul 4, 2015 at 5:20 AM


Visibility: N/A

Pressure: 30.12 "Hg

Humidity: 73%

Dew point: 61 °F

Location of BurgdorfLocation

Historic Weather in Burgdorf — Graph

°F

Burgdorf temperature yesterday

Maximum temperature yesterday: 90 °F (at 5:20 PM)
Minimum temperature yesterday: 68 °F (at 5:20 AM)
Average temperature yesterday: 78 °F

Past Weeks' High & Low Weather Summary

 TemperatureHumidityPressure
High91 °F (Jul 2, 4:20 PM)100% (Jun 23, 12:20 AM)30.27 "Hg (Jun 23, 12:20 AM)
Low46 °F (Jun 21, 1:20 AM)31% (Jul 1, 5:20 PM)29.65 "Hg (Jun 22, 9:20 PM)
Average63 °F69%30.05 "Hg
* Reported Jun 19 4:20 AM — Jul 4 4:20 AM, Burgdorf, Weather by CustomWeather, © 2015

Note: Actual official high and low records may vary slightly from our data, if they occured in-between our weather recording intervals... More about our weather records

Advertising

Burgdorf weather history for previous 24 hours

 ConditionsComfort  
Time TempWeatherWind HumidityBarometerVisibility
4:20 AM
Sat, Jul 4
68 °FPassing clouds.3 mph78%30.15 "HgN/A
3:20 AM72 °FPassing clouds.2 mph69%30.15 "HgN/A
2:20 AM73 °FPassing clouds.5 mph69%30.18 "HgN/A
1:20 AM72 °FPassing clouds.3 mph78%30.18 "HgN/A
12:20 AM72 °FPassing clouds.1 mph78%30.18 "HgN/A
11:20 PM
Fri, Jul 3
75 °FPassing clouds.1 mph69%30.21 "HgN/A
10:20 PM79 °FScattered clouds.1 mph61%30.21 "HgN/A
9:20 PM84 °FScattered clouds.1 mph51%30.21 "HgN/A
8:20 PM88 °FPassing clouds.5 mph43%30.18 "HgN/A
7:20 PM90 °FPassing clouds.6 mph41%30.21 "HgN/A
6:20 PM88 °FPassing clouds.7 mph43%30.21 "HgN/A
5:20 PM90 °FPassing clouds.7 mph38%30.21 "HgN/A
4:20 PM88 °FScattered clouds.6 mph40%30.24 "HgN/A
3:20 PM86 °FPartly sunny.7 mph43%30.24 "HgN/A
2:20 PM82 °FPartly sunny.5 mph55%30.24 "HgN/A
1:20 PM79 °FPartly sunny.6 mph58%30.24 "HgN/A
12:20 PM75 °FBroken clouds.9 mph69%30.24 "HgN/A
11:20 AM79 °FBroken clouds.5 mph54%30.24 "HgN/A
10:20 AM72 °FBroken clouds.10 mph69%30.21 "HgN/A
9:20 AM73 °FThunderstorms. Broken clouds.12 mph61%30.27 "Hg4 mi
8:20 AM75 °FThundershowers. Broken clouds.7 mph50%30.27 "HgN/A
7:20 AM73 °FBroken clouds.6 mph53%30.24 "HgN/A
6:20 AM70 °FPartly sunny.5 mph60%30.24 "HgN/A
Weather by CustomWeather, © 2015

See weather overviewHow to use our weather pages